EW4210 Weather Reports


Display with metric or nautical units.
time (UTC)temp
F
wind
direction
speed
MPH
gust
MPH
rain 1hr
in
rain 24hr
in
rain mn
in
humidity
%
barometer
mb
20260901161537 92 268 3.0 5.0 0.00 0.00 0.00 57 1017.5
20260901160026 92 223 0.0 3.0 0.00 0.00 0.00 61 1017.6
20260901154603 91 255 1.0 3.0 0.00 0.00 0.00 60 1017.5
20260901154501 91 255 1.0 3.0 0.00 0.00 0.00 59 1017.6
20260901153049 92 113 0.0 2.0 0.00 0.00 0.00 58 1017.6
20260901151510 91 191 0.0 2.0 0.00 0.00 0.00 60 1017.5
20260901150036 90 204 0.0 0.0 0.00 0.00 0.00 62 1017.5
20260901144516 89 117 0.0 0.0 0.00 0.00 0.00 68 1017.4
20260901143052 88 117 0.0 0.0 0.00 0.00 0.00 69 1017.3
20260901141538 87 118 0.0 0.0 0.00 0.00 0.00 73 1017.4
20260901140009 85 132 0.0 0.0 0.00 0.00 0.00 74 1017.4
20260901134544 83 106 0.0 0.0 0.00 0.00 0.00 79 1017.4
20260901133024 81 83 0.0 0.0 0.00 0.00 0.00 82 1017.5
20260901131619 78 83 0.0 0.0 0.00 0.00 0.00 88 1017.4
20260901130043 75 83 0.0 0.0 0.00 0.00 0.00 92 1017.3
20260901124512 74 83 0.0 0.0 0.00 0.00 0.00 92 1017.4
20260901123100 73 83 0.0 0.0 0.00 0.00 0.00 94 1017.3
20260901123002 73 83 0.0 0.0 0.00 0.00 0.00 94 1017.3
20260901121528 73 85 0.0 0.0 0.00 0.00 0.00 93 1017.1
20260901120011 72 85 0.0 0.0 0.00 0.00 0.00 93 1017.1
20260901114549 73 85 0.0 0.0 0.00 0.00 0.00 93 1016.7
20260901113031 73 88 0.0 0.0 0.00 0.00 0.00 92 1016.7
20260901111513 73 88 0.0 0.0 0.00 0.00 0.00 92 1016.5
20260901110053 73 88 0.0 0.0 0.00 0.00 0.00 92 1016.4
20260901104539 73 88 0.0 0.0 0.00 0.00 0.00 92 1016.3
20260901103023 73 88 0.0 0.0 0.00 0.00 0.00 92 1016.3
20260901101505 74 88 0.0 0.0 0.00 0.00 0.00 91 1016.2
20260901100058 74 88 0.0 0.0 0.00 0.00 0.00 91 1016.2
20260901094529 74 88 0.0 0.0 0.00 0.00 0.00 91 1016.1
20260901093008 74 88 0.0 0.0 0.00 0.00 0.00 90 1016.0
20260901091545 75 88 0.0 0.0 0.00 0.00 0.00 89 1015.9
20260901090039 75 88 0.0 0.0 0.00 0.00 0.00 89 1015.9
20260901084509 75 88 0.0 0.0 0.00 0.00 0.00 88 1015.8
20260901083055 75 88 0.0 0.0 0.00 0.00 0.00 88 1015.8
20260901081533 75 88 0.0 0.0 0.00 0.00 0.00 88 1015.6
20260901080013 75 88 0.0 0.0 0.00 0.00 0.00 87 1015.6
20260901074558 75 88 0.0 0.0 0.00 0.00 0.00 87 1015.5
20260901074503 75 88 0.0 0.0 0.00 0.00 0.00 87 1015.5
20260901073040 76 88 0.0 0.0 0.00 0.00 0.00 86 1015.6
20260901071517 76 88 0.0 0.0 0.00 0.00 0.00 85 1015.5
20260901070052 77 88 0.0 0.0 0.00 0.00 0.00 83 1015.5
20260901064537 77 88 0.0 0.0 0.00 0.00 0.00 83 1015.5
20260901063012 78 88 0.0 0.0 0.00 0.00 0.00 82 1015.5
20260901061605 78 88 0.0 0.0 0.00 0.00 0.00 81 1015.4
20260901060046 78 88 0.0 0.0 0.00 0.00 0.00 80 1015.4
20260901054521 78 88 0.0 0.0 0.00 0.00 0.00 79 1015.4
20260901053009 79 88 0.0 1.0 0.00 0.00 0.00 78 1015.3
20260901051544 79 88 0.0 0.0 0.00 0.00 0.00 77 1015.4
20260901050028 80 88 0.0 0.0 0.00 0.00 0.00 76 1015.3
20260901044508 81 88 0.0 1.0 0.00 0.00 0.00 75 1015.4
20260901043051 81 88 0.0 1.0 0.00 0.00 0.00 75 1015.4
20260901041537 81 88 0.0 1.0 0.00 0.00 0.00 74 1015.4
20260901040019 81 63 0.0 1.0 0.00 0.00 0.00 74 1015.3
20260901034558 81 63 0.0 2.0 0.00 0.00 0.00 73 1015.4
20260901034502 81 63 0.0 2.0 0.00 0.00 0.00 73 1015.5
20260901033047 81 69 0.0 0.0 0.00 0.00 0.00 73 1015.4
20260901031546 82 69 0.0 2.0 0.00 0.00 0.00 72 1015.2
20260901030021 83 69 0.0 1.0 0.00 0.00 0.00 70 1015.2
20260901024559 83 69 0.0 1.0 0.00 0.00 0.00 69 1015.1
20260901023043 85 69 0.0 2.0 0.00 0.00 0.00 67 1014.9
20260901021526 85 69 0.0 2.0 0.00 0.00 0.00 65 1014.8
20260901020009 86 69 0.0 2.0 0.00 0.00 0.00 64 1014.7
20260901014553 87 83 0.0 2.0 0.00 0.00 0.00 62 1014.5
20260901013034 87 96 1.0 3.0 0.00 0.00 0.00 62 1014.2
20260901011510 88 86 0.0 0.0 0.00 0.00 0.00 60 1014.2
20260901010052 88 90 1.0 4.0 0.00 0.00 0.00 59 1014.1
20260901004539 89 95 1.0 4.0 0.00 0.00 0.00 58 1014.1
20260901003024 89 115 1.0 6.0 0.00 0.00 0.00 58 1014.1
20260901001514 90 96 0.0 2.0 0.00 0.00 0.00 57 1014.1
20260901000044 91 105 1.0 4.0 0.00 0.00 0.00 55 1014.0
20260831234534 91 103 1.0 4.0 0.00 0.00 0.00 53 1013.9
20260831233018 91 116 2.0 7.0 0.00 0.00 0.00 52 1014.0
20260831231602 92 115 1.0 3.0 0.00 0.00 0.00 51 1014.1
20260831230058 92 94 3.0 7.0 0.00 0.00 0.00 50 1014.1
20260831224520 93 111 2.0 8.0 0.00 0.00 0.00 50 1014.1
20260831223102 93 104 1.0 6.0 0.00 0.00 0.00 52 1014.2
20260831223001 93 115 2.0 6.0 0.00 0.00 0.00 51 1014.3
20260831221548 93 92 2.0 7.0 0.00 0.00 0.00 52 1014.4
20260831220023 93 87 2.0 4.0 0.00 0.00 0.00 52 1014.3
20260831214505 94 51 2.0 5.0 0.00 0.00 0.00 49 1014.4
20260831213053 95 144 3.0 12.0 0.00 0.00 0.00 47 1014.5
20260831211530 95 85 1.0 4.0 0.00 0.00 0.00 47 1014.6
20260831210009 96 109 1.0 5.0 0.00 0.00 0.00 42 1014.7
20260831204551 96 68 1.0 6.0 0.00 0.00 0.00 41 1014.8
20260831203023 96 74 1.0 7.0 0.00 0.00 0.00 43 1015.0
20260831201505 96 183 0.0 4.0 0.00 0.00 0.00 48 1015.2
20260831200039 95 92 2.0 4.0 0.00 0.00 0.00 46 1015.3
20260831194539 94 107 3.0 10.0 0.00 0.00 0.00 47 1015.6
20260831193057 94 63 1.0 7.0 0.00 0.00 0.00 48 1015.7
20260831193005 94 81 1.0 7.0 0.00 0.00 0.00 48 1015.6
20260831191545 95 90 3.0 7.0 0.00 0.00 0.00 46 1015.8
20260831190027 94 71 0.0 3.0 0.00 0.00 0.00 48 1016.1
20260831184509 94 82 0.0 6.0 0.00 0.00 0.00 48 1016.3
20260831183054 95 128 1.0 3.0 0.00 0.00 0.00 49 1016.4
20260831181535 94 138 0.0 8.0 0.00 0.00 0.00 47 1016.7
20260831180022 95 126 2.0 6.0 0.00 0.00 0.00 48 1016.8
20260831174600 94 148 1.0 3.0 0.00 0.00 0.00 48 1016.9
20260831173036 94 100 1.0 4.0 0.00 0.00 0.00 50 1017.1
20260831171531 94 97 2.0 6.0 0.00 0.00 0.00 55 1017.2
20260831170128 93 96 3.0 8.0 0.00 0.00 0.00 51 1017.3
20260831164539 92 216 1.0 3.0 0.00 0.00 0.00 57 1017.4
20260831163018 91 93 1.0 3.0 0.00 0.00 0.00 57 1017.5